Location: Unspecified
(44.0704°N, 88.6889°W)
Time: 19:11:02
(UTC+01:00)

CZ-3 Stage 3 - Visible Passes

Search period start: 22 November 2017 00:00
Search period end: 02 December 2017 00:00
Orbit: 416 x 34781 km, 31.0° (Epoch: 21 November)

Date Brightness Start Highest point End Pass type
(mag) Time Alt. Az. Time Alt. Az. Time Alt. Az.
22 Nov 5.3 09:50:45 24° SE 09:50:45 24° SE 09:59:41 10° ESE visible
24 Nov 5.9 13:12:06 10° WSW 13:23:53 30° S 16:23:52 10° SSE visible
25 Nov 5.5 09:41:57 22° SE 09:41:57 22° SE 09:50:01 10° ESE visible
27 Nov 5.9 13:02:58 10° WSW 13:14:43 29° S 15:45:24 10° SSE visible
28 Nov 5.6 09:33:09 21° SE 09:33:09 21° SE 09:40:20 10° ESE visible
30 Nov 5.9 12:53:51 10° WSW 13:05:33 28° S 15:13:41 10° SSE visible
01 Dec 5.8 09:24:20 19° SE 09:24:20 19° SE 09:30:38 10° ESE visible
